Tracking 19709 objects as of 18-Jun-2019
HD Live streaming from Space Station
objects crossing your sky now

BREEZE-M R/B

Track BREEZE-M R/B now!


NORAD ID: 28869
Int'l Code: 2005-036B
Perigee: 3,180.1 km
Apogee: 35,474.3 km
Inclination: 10.4 °
Period: 683.3 minutes
Semi major axis: 25698 km
RCS: 6.7821 m2 (large)
Launch date: September 8, 2005
Source: Commonwealth of Independent States (former USSR) (CIS)
Launch site: TYURATAM MISSILE AND SPACE COMPLEX (TTMTR)

Note: This is a ROCKET BODY
aabbcc
Your satellite tracking list
Your tracking list is empty




NASA's NSSDC Master Catalog

Two Line Element Set (TLE):
1 28869U 05036B   19168.55331947 -.00000263 +00000-0 +00000-0 0  9991
2 28869 010.4265 351.5424 6283358 244.4598 039.6757 02.10740592105988
Source of the keplerian elements: AFSPC